Theta_e
281 281 282 282 282 283 283 284 284 285 285 284 284 284 285 285 286 287 288 288 289 290 291 291 291 291 292 293 294 295 296 297 298 299 300 301 301 302 302 301 302 302 302 303 303 303 303 304 304 304 306 308 311 315 317 318 320 322 324 327 328 329 330 329 329 329 328 327 327 327 326 326 325 325 324 324 325 326 327 330 334 335 335 334 335 338
281 281 281 282 282 283 283 284 284 284 284 284 284 284 284 285 286 286 287 288 289 289 290 291 292 292 292 292 293 294 295 296 297 298 299 300 301 302 301 301 301 302 302 302 303 303 303 304 304 304 305 307 310 313 316 317 319 321 323 326 328 329 330 330 329 329 328 327 327 326 326 326 325 325 324 324 324 325 325 328 331 333 333 333 336 338
281 281 281 281 282 282 283 284 284 284 284 284 284 284 284 285 285 286 287 288 288 289 290 291 292 292 292 292 293 293 294 295 295 296 298 299 300 301 302 302 301 302 302 302 303 303 304 304 304 304 305 306 308 312 315 317 318 319 322 325 327 329 330 330 329 329 328 327 326 326 326 326 325 325 325 324 324 324 325 328 330 332 333 333 335 337
281 281 281 281 281 282 283 283 284 284 284 284 284 284 284 284 285 286 287 287 288 289 290 290 291 292 292 293 293 293 294 294 295 295 296 297 299 301 302 302 302 302 302 302 303 304 304 305 305 305 305 306 308 311 314 316 317 318 321 324 326 328 329 329 329 328 328 327 326 326 326 326 326 325 325 325 324 325 325 328 330 331 333 334 335 338
280 280 280 281 281 282 283 283 284 284 283 283 283 283 284 284 285 285 286 287 288 288 289 290 291 292 292 293 293 293 293 294 294 294 295 296 297 299 301 302 302 302 303 303 303 304 305 306 306 306 306 306 307 310 314 316 317 318 320 323 326 327 328 328 328 328 327 327 327 327 327 327 327 327 326 326 326 326 326 328 330 331 333 334 335 338
280 280 280 281 281 282 283 283 283 283 283 283 283 283 284 284 284 285 286 286 287 288 289 290 291 292 292 293 293 293 294 294 294 294 294 295 296 298 299 300 301 302 303 304 304 305 306 306 307 307 307 306 307 310 313 316 317 318 320 323 326 327 328 328 328 328 328 327 328 328 328 328 329 328 328 328 328 328 328 329 331 332 333 334 336 338
280 280 280 280 281 282 282 283 283 283 283 283 283 283 283 284 284 285 285 286 287 288 289 290 290 291 292 293 293 294 294 294 294 294 294 295 296 297 298 299 300 301 303 304 305 306 306 307 308 308 308 307 308 310 313 315 317 319 321 323 325 327 329 329 329 328 328 328 328 329 329 330 330 330 330 330 330 330 330 331 331 332 333 335 337 339
279 280 280 280 281 282 282 283 283 283 283 283 283 283 283 283 284 284 285 286 287 288 288 289 290 291 292 293 293 294 294 294 294 294 294 295 296 297 298 298 299 300 302 304 305 306 307 308 308 308 308 307 308 310 313 315 317 319 321 322 324 327 329 330 330 329 329 328 329 329 330 331 331 331 332 332 332 332 332 332 332 333 333 335 337 339
279 280 280 280 281 282 282 282 282 282 282 282 283 283 283 283 283 284 285 286 287 287 288 288 289 290 291 292 293 294 295 295 295 295 295 295 296 297 297 298 298 300 302 304 305 307 308 308 308 308 307 307 308 310 313 315 318 320 322 322 324 326 329 330 330 329 329 328 329 329 330 331 331 332 332 332 333 333 333 333 333 333 334 335 337 338
279 280 280 280 281 282 282 282 282 282 282 282 282 282 283 283 283 283 284 285 286 287 287 287 288 289 291 292 293 294 295 295 295 295 296 296 297 297 297 297 298 299 301 304 306 307 308 308 308 307 307 306 307 310 313 315 318 320 322 322 323 325 328 330 330 329 328 328 329 329 330 330 331 331 332 332 332 333 333 333 333 334 334 335 336 338
279 279 280 280 281 281 282 282 282 282 282 282 282 282 282 282 283 283 283 284 285 286 287 287 287 288 290 292 293 294 295 295 295 295 296 296 297 297 298 297 298 299 302 304 306 307 308 308 308 307 306 306 307 310 313 315 318 320 321 321 323 325 327 330 330 329 328 328 329 329 329 330 330 330 331 331 331 332 332 333 333 334 334 335 336 337
279 279 280 280 281 281 281 281 281 282 282 282 282 282 282 282 282 282 283 283 284 285 286 286 287 288 290 291 293 294 295 295 296 296 296 296 297 298 298 297 298 300 303 305 307 308 308 308 308 307 306 306 308 310 313 316 318 319 320 320 322 324 327 329 330 330 329 329 329 329 329 329 329 330 330 330 330 331 332 332 333 334 334 335 336 337
279 279 279 280 280 281 281 281 281 281 281 281 281 282 282 282 282 282 282 282 283 284 285 286 287 288 290 291 292 293 294 295 295 296 296 297 297 298 298 298 298 300 303 306 307 308 309 309 308 307 306 306 308 311 314 316 317 318 319 320 321 324 326 329 330 330 329 330 330 330 329 329 329 330 330 330 330 330 331 332 333 334 334 335 336 336
279 279 279 280 280 280 280 281 281 281 281 281 281 281 281 281 281 281 282 282 283 283 284 285 286 288 290 291 291 292 293 294 295 296 297 297 298 299 299 298 299 300 303 305 306 308 309 309 309 308 307 307 308 311 314 315 316 317 318 319 322 325 327 329 330 330 330 330 330 330 330 330 330 330 330 330 330 330 331 332 333 334 334 335 335 335
279 279 279 279 280 280 280 280 280 281 281 280 280 280 280 281 281 281 281 282 282 283 283 284 285 287 289 290 291 291 292 293 294 296 297 298 299 299 300 299 299 300 302 303 305 307 309 309 308 307 306 307 309 311 314 315 315 316 317 319 322 325 328 329 330 331 331 330 330 330 330 330 330 330 331 331 331 331 331 332 333 334 334 334 334 334
278 278 279 279 279 280 280 280 280 280 280 280 280 280 280 281 281 281 281 281 282 282 283 283 284 287 289 290 290 291 292 293 293 295 296 298 299 300 300 300 300 300 301 302 304 307 309 309 308 307 307 307 309 311 313 314 314 315 317 319 323 326 328 329 330 330 331 330 330 330 330 330 330 330 330 331 331 331 331 332 333 333 334 334 334 334
278 278 279 279 279 279 279 279 279 279 279 280 280 280 280 280 280 280 281 281 282 282 283 283 283 285 287 290 291 291 291 292 292 294 295 297 299 300 301 300 300 300 301 302 304 307 309 310 309 308 307 307 308 310 312 313 313 314 316 319 323 326 328 329 329 330 330 330 330 330 330 330 330 330 330 331 331 331 331 332 333 333 333 333 333 334
278 278 278 278 278 279 279 279 279 279 279 279 280 280 280 280 280 280 281 281 281 282 282 282 283 283 284 288 291 292 291 291 292 293 295 297 299 300 300 300 300 301 301 302 305 307 310 311 310 309 307 307 308 309 310 312 313 314 317 320 323 325 328 329 330 330 330 330 330 330 330 330 330 330 331 331 331 332 331 332 332 333 333 333 333 333
278 278 278 278 278 278 278 278 278 279 279 279 280 280 280 280 280 280 281 281 281 281 282 282 282 282 283 285 289 291 290 290 291 292 294 297 299 300 300 300 301 301 302 303 306 308 311 312 312 310 309 308 308 309 310 311 313 316 318 320 322 324 327 329 330 329 330 330 330 330 330 330 331 331 331 331 331 332 332 332 332 333 333 333 332 333
277 277 277 277 278 278 278 278 278 279 279 279 280 280 280 280 280 281 281 281 281 281 281 282 282 282 283 285 288 290 290 289 290 291 293 296 298 300 300 301 301 302 302 304 306 309 311 312 312 312 310 308 308 309 310 312 314 317 319 320 322 324 326 328 329 329 329 330 330 330 331 331 331 331 331 331 331 331 332 332 333 332 332 332 332 332
277 277 278 278 278 278 278 278 278 279 279 280 280 280 280 280 281 281 281 281 281 281 281 282 282 282 283 285 288 289 289 289 290 291 292 295 297 299 300 300 301 302 303 304 306 309 311 311 313 313 311 309 309 309 310 313 315 318 319 319 321 324 326 327 328 329 329 329 330 330 331 331 331 331 331 330 330 331 331 332 333 333 332 332 332 332
277 278 278 278 278 278 278 278 279 279 280 280 280 280 281 281 281 281 281 280 281 281 281 282 282 282 283 285 287 289 289 289 289 289 291 293 296 299 299 300 300 302 303 304 306 309 310 311 313 313 311 309 309 310 311 314 317 318 319 319 321 323 325 327 328 328 329 329 330 330 330 331 331 331 331 330 330 330 331 332 332 332 332 332 332 332
278 278 278 278 278 278 278 279 279 280 280 280 281 281 281 281 281 281 280 280 281 281 281 281 281 282 284 285 287 288 289 288 288 288 289 290 294 297 298 299 300 301 303 304 306 309 311 312 313 312 310 310 310 311 313 316 317 318 319 319 321 324 325 326 327 328 328 329 330 330 330 331 331 331 331 330 330 330 330 331 332 332 332 332 332 332
278 278 278 278 278 278 279 279 279 280 280 281 281 281 281 281 281 280 280 280 281 281 281 281 281 283 284 286 287 288 288 287 287 288 288 290 292 296 297 298 299 301 303 304 306 309 312 313 312 311 310 311 312 313 315 316 317 317 319 320 322 324 325 326 327 327 328 329 329 330 330 330 331 331 331 331 330 330 331 331 331 331 331 331 331 332
279 279 279 279 279 279 279 279 280 280 281 281 281 281 281 281 281 280 281 281 281 281 281 281 281 282 284 285 287 288 288 288 288 289 289 290 293 295 297 297 298 300 303 305 307 310 312 312 312 311 310 312 313 315 316 316 317 318 319 320 322 324 325 326 327 327 328 329 329 329 329 330 330 331 331 331 331 331 331 331 331 331 331 331 331 332
279 279 279 279 279 279 279 280 280 280 280 281 280 280 280 281 281 281 281 281 281 281 280 281 281 282 283 284 286 287 288 288 289 289 289 290 292 295 297 297 298 300 302 305 308 311 312 312 311 311 311 313 315 316 316 317 318 319 319 320 322 324 325 326 327 327 328 328 329 329 329 329 329 330 331 331 331 331 331 331 331 331 330 330 330 331
278 278 278 278 279 279 279 279 279 279 279 280 280 280 280 281 281 281 281 281 280 280 280 280 280 281 282 283 285 287 288 288 289 289 289 290 291 293 296 297 298 300 302 306 309 311 311 311 311 312 312 314 316 316 317 318 319 319 320 321 322 323 324 326 326 327 327 328 329 329 329 329 329 329 330 330 330 331 331 331 331 330 330 330 330 330
278 278 278 278 278 278 278 278 278 279 279 279 279 280 280 280 280 280 280 280 280 280 280 280 280 280 281 282 284 287 288 288 288 289 289 290 291 293 295 297 298 300 302 306 309 311 311 311 312 312 313 315 315 316 317 317 318 319 320 321 322 323 324 326 327 327 327 328 329 329 329 329 329 329 329 329 330 330 330 330 331 330 330 330 330 330
278 278 278 278 278 278 278 278 279 279 279 279 279 279 279 280 280 280 280 280 280 279 279 279 279 279 280 281 284 287 288 287 287 288 289 290 291 293 295 296 297 299 301 306 309 311 311 311 312 312 313 314 315 316 316 316 317 319 320 321 321 322 324 325 326 327 327 328 329 329 329 329 329 329 329 329 329 329 329 330 330 330 330 330 330 330
278 278 278 278 278 278 278 278 279 279 279 279 279 279 279 279 279 279 279 279 279 279 279 279 279 279 279 280 282 285 287 287 287 288 289 290 292 294 295 296 297 298 300 304 308 311 311 312 312 312 312 312 313 314 315 315 316 317 319 320 322 322 323 325 326 326 327 328 329 329 330 330 330 329 329 329 329 329 329 329 329 329 329 329 329 329
278 278 278 278 278 278 278 278 278 278 279 279 279 279 279 279 279 279 279 279 278 279 279 279 279 279 279 279 281 283 286 288 288 288 289 290 292 294 295 296 296 296 297 299 302 305 310 312 312 312 311 311 312 313 315 314 314 316 318 320 322 322 323 324 325 326 326 327 328 329 330 330 330 330 329 329 329 329 329 329 329 329 329 329 329 329
278 278 278 278 278 278 278 278 278 278 278 278 279 279 279 278 278 278 279 279 279 279 279 279 279 280 279 279 280 281 285 288 288 288 289 290 292 293 294 294 295 296 296 296 297 298 303 308 311 312 311 311 312 314 314 314 314 314 317 319 321 322 323 323 324 325 325 325 326 328 329 329 329 329 329 329 329 329 329 329 329 329 329 329 329 329
278 278 278 278 278 278 278 278 278 278 278 278 278 278 278 278 278 278 278 279 279 279 279 280 280 280 280 280 280 282 285 287 288 288 289 290 291 293 293 294 295 296 297 297 297 297 299 304 308 311 311 311 312 314 314 314 313 314 316 318 319 320 321 323 324 324 324 325 326 326 327 328 328 328 328 328 328 328 328 329 329 329 329 329 329 329
278 278 278 278 278 278 278 278 278 278 278 278 278 279 279 279 279 279 279 279 279 279 280 280 280 280 280 280 281 283 286 286 287 288 289 289 290 292 293 294 294 296 297 298 299 300 301 304 307 310 311 311 312 313 314 313 313 314 315 316 317 318 319 321 322 323 324 325 325 326 326 327 327 327 327 327 327 328 328 328 328 328 329 329 329 329
278 278 278 278 278 278 278 278 278 278 279 279 279 279 279 279 279 279 279 279 279 279 280 280 280 280 280 281 282 284 286 286 287 288 289 289 290 291 293 293 294 295 297 298 299 300 302 304 307 309 311 312 312 313 314 313 313 313 314 316 316 317 317 319 320 322 324 325 325 325 326 326 326 326 326 327 327 327 328 328 328 328 328 328 329 329
278 278 278 278 278 278 278 278 279 279 279 279 279 279 280 280 280 280 280 280 280 280 280 280 280 281 281 282 283 284 286 287 287 287 288 289 289 291 292 293 294 295 296 297 298 299 300 303 306 308 310 311 313 314 314 313 313 313 313 315 316 316 316 317 318 321 324 325 325 325 326 326 326 326 326 326 327 327 327 328 328 328 328 328 329 329
278 278 278 278 278 278 278 278 279 279 279 279 280 280 280 280 280 280 280 280 280 280 281 281 281 282 282 282 283 284 286 286 287 288 288 289 289 290 291 293 294 294 295 297 298 298 300 303 306 308 310 311 312 313 314 313 312 312 313 313 314 316 316 316 317 320 323 325 325 325 325 326 326 326 326 326 326 326 327 327 328 328 328 328 328 329
278 278 278 277 277 278 278 278 278 278 278 279 279 279 279 279 280 280 280 280 281 281 282 282 282 282 283 283 283 284 285 287 287 288 288 288 289 290 291 293 294 294 295 296 297 297 299 302 305 308 309 311 312 312 313 313 312 312 312 312 313 314 316 316 317 319 322 324 324 324 325 325 326 326 326 326 326 326 326 327 327 328 328 328 328 328
277 277 277 277 277 277 278 278 278 278 278 278 278 279 279 280 280 280 281 281 281 282 282 283 283 283 283 283 283 284 286 287 287 288 288 289 290 291 292 294 295 295 296 296 297 297 298 300 302 305 308 311 312 312 313 313 312 312 311 312 312 313 314 315 316 318 320 321 322 323 324 325 326 326 326 326 326 326 326 326 327 327 327 327 327 328
277 277 277 277 277 277 278 278 278 278 278 278 278 279 279 280 281 281 281 282 282 283 283 284 284 284 284 283 284 285 286 287 288 288 289 290 291 292 293 294 295 296 297 297 297 298 298 299 301 303 306 309 312 313 313 313 313 312 311 312 312 313 313 314 315 316 317 318 320 322 324 325 326 326 326 326 326 326 326 326 326 327 327 327 327 327
277 277 278 278 278 278 278 278 278 278 278 278 279 279 280 280 281 282 282 283 283 283 284 284 285 285 284 284 284 285 287 287 288 289 289 290 292 293 294 295 296 297 297 298 298 298 299 300 302 303 306 308 311 312 313 313 312 312 312 312 313 313 313 314 315 315 315 316 318 321 323 324 325 326 326 326 326 326 326 326 326 326 326 327 327 327
277 277 278 278 278 278 278 278 278 278 278 279 279 279 280 280 281 282 282 283 284 284 285 285 286 286 285 285 285 286 287 288 289 289 290 291 293 294 295 296 296 297 298 298 298 299 299 300 302 304 305 308 310 312 313 312 312 312 312 312 313 313 313 314 315 315 315 315 317 320 322 323 324 324 325 325 326 326 326 326 326 326 326 326 327 327
277 278 278 278 278 278 278 278 278 278 279 279 279 279 280 280 281 281 282 283 284 284 285 286 286 286 287 287 286 286 287 288 289 290 291 292 293 294 296 296 297 297 297 298 299 299 300 301 302 303 305 307 309 311 313 312 312 312 312 312 312 313 313 314 315 315 315 314 316 318 321 322 323 323 324 324 325 326 326 326 326 326 326 326 326 327
277 278 278 278 278 278 278 278 278 278 278 279 279 279 280 281 281 281 282 283 283 284 285 285 286 286 287 288 288 287 287 288 289 290 291 292 293 295 296 296 297 297 297 298 299 300 301 302 302 303 305 307 309 311 312 312 312 311 311 311 312 312 313 314 315 315 315 314 314 316 319 321 322 323 323 324 324 325 326 326 326 326 326 326 327 327
278 278 278 278 278 278 278 278 278 278 278 279 279 279 280 281 281 281 282 283 283 284 284 285 286 286 287 288 288 289 288 288 289 290 291 292 293 294 295 296 297 297 297 298 298 299 300 302 302 303 305 307 308 310 312 313 312 312 311 311 311 312 313 313 314 315 315 313 313 314 316 318 320 322 323 323 323 324 324 325 325 326 326 326 327 327
278 278 278 278 278 278 278 278 278 278 279 279 279 279 280 281 281 281 282 282 283 284 284 285 285 286 286 287 288 289 290 290 290 290 291 292 293 294 295 296 296 297 297 297 298 299 299 300 302 303 305 307 308 310 312 313 313 312 311 311 311 312 313 313 314 315 315 313 312 312 313 315 318 320 322 323 323 323 323 324 324 325 325 326 326 326
278 278 278 278 278 278 278 278 278 278 279 279 279 279 280 280 281 282 282 283 283 283 284 284 285 285 286 287 287 288 289 290 290 291 291 292 293 294 295 296 296 297 297 297 298 298 299 300 301 303 305 307 309 310 312 313 313 313 312 311 311 312 312 313 314 315 315 314 313 312 312 314 316 318 321 322 322 323 323 323 324 324 324 325 325 326
278 278 278 278 279 279 278 278 278 278 278 279 279 279 280 280 281 281 282 282 283 283 284 284 285 285 285 286 287 287 288 289 290 291 291 292 293 294 295 295 296 296 297 297 298 298 299 299 300 303 305 307 309 310 311 312 313 312 312 311 311 311 312 313 314 314 315 314 313 312 312 313 314 316 319 321 322 322 322 323 323 323 324 324 324 325
278 278 278 278 279 279 279 278 278 278 278 279 279 279 280 280 281 281 282 282 282 283 283 284 284 285 285 286 287 288 288 289 290 291 291 292 292 293 294 295 295 296 297 297 298 298 298 299 300 302 304 307 308 310 310 312 312 312 312 311 311 311 311 312 313 314 314 314 313 312 312 312 313 315 317 320 322 322 322 322 323 323 323 323 324 324
278 278 278 278 279 279 279 278 278 278 278 278 279 279 280 281 281 282 282 282 282 282 282 283 284 284 285 286 287 288 289 289 290 291 291 292 292 293 294 294 295 296 296 297 298 298 299 299 300 301 303 305 307 309 310 310 311 312 312 311 311 311 311 312 313 314 314 314 314 313 312 312 312 313 316 318 320 322 322 322 322 322 322 323 323 324
278 278 278 278 278 279 279 279 278 278 278 278 279 279 280 280 281 282 282 282 282 282 282 283 283 284 284 285 286 287 288 289 290 291 291 292 292 293 294 294 295 296 296 297 298 298 299 300 300 301 303 304 306 307 308 309 310 311 312 312 312 312 312 312 313 313 314 314 314 314 313 313 312 313 314 316 319 321 322 322 322 322 322 322 322 323
Wind_Speed
23 24 25 24 24 24 24 24 25 26 28 30 31 30 28 25 23 21 20 19 18 17 17 17 18 18 19 20 22 23 23 22 20 19 18 19 20 21 23 25 26 27 27 26 25 25 26 27 28 29 31 32 31 28 24 24 27 31 35 40 43 46 48 49 49 50 50 50 50 50 49 47 46 44 42 41 40 40 42 44 47 49 49 50 52 54
24 24 24 23 23 23 23 24 25 26 28 29 30 30 28 26 25 23 21 20 18 17 17 17 17 18 19 21 23 24 25 25 23 21 19 19 20 22 23 25 27 27 27 26 25 25 25 26 27 29 30 32 33 32 27 23 23 27 33 39 43 46 48 49 50 50 50 50 50 50 49 48 47 46 45 44 42 42 42 44 45 46 46 49 53 55
25 24 24 23 22 22 23 24 26 27 27 28 28 28 27 27 26 25 23 21 19 18 17 16 17 18 19 21 23 25 26 26 24 23 21 20 20 21 22 24 25 26 26 26 25 25 25 25 26 27 29 31 33 33 30 25 22 24 30 37 42 46 48 50 50 50 50 50 50 49 49 48 47 47 46 45 44 43 43 44 45 44 45 48 52 55
24 24 24 24 23 22 23 25 26 27 27 27 27 27 27 27 27 25 23 22 21 19 17 17 16 17 19 20 23 24 26 26 26 24 23 22 21 20 20 21 22 24 24 24 24 24 24 24 24 26 28 30 33 34 33 27 22 21 26 34 41 46 49 50 51 51 51 50 49 47 47 47 47 47 47 46 46 45 44 45 45 44 44 46 51 55
24 24 24 24 23 23 24 25 26 26 26 26 26 26 27 27 27 25 24 22 21 20 18 17 16 16 18 20 22 24 26 27 27 26 25 24 23 21 20 20 20 21 23 23 23 23 24 23 23 24 26 30 33 35 34 29 22 19 23 32 39 45 48 50 51 51 50 49 47 45 45 45 45 46 46 46 46 46 45 46 46 45 44 45 50 55
25 24 24 23 23 23 24 25 24 24 24 25 26 27 27 27 26 25 25 24 23 21 19 18 17 16 17 18 20 23 25 27 27 27 26 25 24 23 21 20 20 21 22 23 24 24 24 24 23 22 24 29 33 35 35 29 22 18 21 29 37 43 47 50 51 51 49 47 45 44 43 43 44 44 45 46 46 46 46 46 47 47 46 46 50 55
26 25 24 23 23 23 23 23 23 22 23 25 26 28 28 27 26 26 25 24 23 22 20 19 18 17 16 17 18 21 23 25 27 27 27 26 26 24 23 22 21 21 23 24 25 25 25 24 23 22 24 28 32 35 35 29 22 18 19 26 34 40 45 49 50 49 48 46 44 43 41 41 42 43 44 45 45 46 46 46 47 48 49 49 51 55
26 25 24 23 23 22 22 22 21 21 22 24 26 28 28 27 26 26 25 23 22 21 20 19 18 17 17 16 17 19 21 24 26 27 27 27 26 25 23 22 22 22 23 24 26 27 26 25 23 23 24 27 31 35 35 29 21 17 19 23 29 36 43 47 49 48 47 45 43 41 40 40 40 41 42 43 44 45 46 46 48 50 52 53 54 55
24 24 24 23 22 22 22 21 21 21 22 23 25 26 26 26 27 27 26 24 22 20 20 20 19 18 17 16 16 17 19 22 24 26 26 26 26 24 23 22 21 21 22 24 26 27 27 25 24 23 25 27 31 34 35 29 21 17 18 19 24 32 40 46 48 48 46 44 42 40 38 38 39 40 41 42 43 44 45 46 48 50 53 55 56 57
23 23 23 22 21 20 21 21 21 21 22 23 23 23 23 24 26 28 28 26 23 20 19 20 20 19 17 15 15 16 18 21 23 25 26 26 25 24 23 22 21 21 22 23 25 26 26 25 24 24 25 27 30 34 35 29 22 17 16 15 18 27 37 44 47 47 45 43 41 38 37 38 38 39 40 41 42 43 44 45 47 50 54 57 58 58
21 21 21 21 20 19 20 21 21 22 22 23 23 22 21 21 23 26 28 28 26 23 21 20 20 20 18 15 14 15 17 20 23 25 26 26 25 24 23 22 21 21 21 22 23 24 24 24 24 25 25 27 30 34 35 29 22 16 12 9 13 23 34 42 46 46 44 42 40 38 37 37 38 39 40 40 41 41 42 43 46 50 54 57 60 60
21 20 20 20 20 20 20 20 21 21 22 22 22 22 22 21 22 23 25 27 27 26 24 23 21 19 17 15 14 14 16 19 23 25 26 25 24 23 23 22 22 21 21 21 20 20 21 22 24 24 25 27 30 33 35 29 21 14 9 6 10 19 30 40 45 46 44 42 40 38 37 37 37 38 39 39 40 40 40 41 44 48 53 57 60 62
20 20 19 20 20 19 19 20 20 21 21 21 21 22 22 23 23 23 24 26 26 26 26 25 23 20 16 14 14 14 16 19 22 24 25 24 23 23 23 23 22 22 21 20 17 15 17 20 22 23 24 26 30 34 35 28 19 13 9 7 10 18 28 38 44 46 45 42 40 38 37 36 36 36 37 37 38 39 39 40 42 46 51 56 60 61
20 19 19 20 20 19 19 19 20 20 21 21 22 23 24 24 23 24 25 26 26 25 25 26 25 22 17 13 13 14 15 18 20 22 23 23 22 22 22 23 23 24 23 20 16 11 12 16 20 22 23 25 30 34 34 27 18 12 10 9 12 21 30 39 44 46 45 43 41 39 38 36 35 35 35 35 36 37 38 38 40 43 48 54 58 59
20 20 20 20 20 20 19 19 20 20 22 22 24 25 24 23 23 23 24 25 25 25 25 25 25 23 18 14 12 14 15 17 19 20 21 22 21 21 22 24 25 25 25 22 17 11 9 13 18 20 21 25 30 35 34 27 19 13 11 10 14 22 31 39 43 45 44 43 41 39 38 36 35 34 33 34 35 37 38 38 39 41 45 51 54 56
20 20 20 21 21 20 20 20 21 21 22 24 25 24 22 22 22 23 23 24 24 24 24 25 26 25 20 14 11 12 15 17 20 21 21 21 20 19 21 23 26 27 26 24 19 13 9 12 16 19 20 24 31 36 36 29 20 15 14 12 15 21 30 37 41 43 43 42 40 39 38 36 35 33 33 33 35 36 38 39 39 41 43 48 51 53
21 20 21 21 22 21 21 21 21 22 24 25 25 23 22 22 22 22 23 23 22 21 21 22 24 25 24 17 12 10 14 17 20 20 20 20 19 18 20 23 26 27 27 25 20 13 7 10 14 18 20 24 30 35 36 30 23 18 16 14 16 21 28 35 38 40 40 40 39 39 38 36 35 33 33 33 35 36 38 40 41 42 43 46 49 51
21 21 21 21 22 22 22 22 23 24 25 25 25 24 23 22 22 22 22 21 21 20 21 21 21 22 24 23 17 11 13 16 18 19 19 18 18 17 18 21 25 27 27 25 19 11 6 8 13 17 19 23 29 33 35 30 24 19 15 16 18 22 27 33 36 37 37 38 38 38 37 36 35 34 33 33 35 36 38 40 41 43 44 46 47 49
21 21 21 21 22 23 23 23 23 24 25 25 25 24 23 22 22 21 21 21 20 20 21 21 22 22 24 25 19 13 13 15 17 18 18 18 17 17 16 19 23 25 26 23 15 8 6 8 10 14 17 23 29 33 34 29 23 18 16 21 22 23 28 32 33 34 35 36 37 37 37 36 35 34 33 33 34 36 38 39 40 42 44 46 47 48
22 23 23 22 23 23 24 23 23 23 24 24 23 23 23 22 22 21 21 21 22 22 21 22 23 24 26 25 19 13 12 14 16 18 18 17 16 16 15 17 20 23 24 21 12 7 9 8 8 12 16 22 28 33 33 28 20 15 15 20 24 27 30 32 32 32 33 34 36 36 37 36 36 35 34 34 34 35 37 38 39 40 42 44 45 47
24 24 24 23 23 23 24 25 25 24 23 22 22 22 22 22 22 22 23 24 24 23 22 22 23 25 26 26 20 13 11 14 17 19 19 17 15 15 14 15 18 20 22 18 11 8 10 8 8 11 16 20 27 32 32 26 18 13 13 16 21 26 31 31 31 31 32 33 34 35 36 36 36 36 35 34 34 35 37 38 38 39 40 41 43 45
24 24 24 23 23 23 24 25 25 23 21 21 21 22 22 22 22 23 24 25 24 23 22 23 25 26 26 25 19 12 9 13 17 19 20 19 17 15 13 14 16 19 20 16 10 8 9 9 11 13 16 20 26 29 28 22 16 13 14 16 21 26 29 29 29 31 31 32 33 34 35 36 37 37 36 35 35 36 37 38 39 39 40 40 42 44
23 23 23 23 24 24 25 25 24 22 21 21 21 22 22 23 24 25 26 25 24 23 24 25 27 27 25 22 17 11 8 10 14 16 19 21 20 17 13 14 16 18 19 14 9 7 10 12 13 15 18 21 24 26 24 18 13 13 16 19 23 28 28 27 28 30 32 32 32 33 34 36 37 38 37 37 37 37 38 39 40 41 42 41 42 44
21 22 22 23 24 24 24 23 23 22 22 21 21 21 22 23 24 24 24 23 23 23 25 26 27 27 25 21 16 11 7 7 10 14 18 21 20 17 14 14 16 18 18 12 7 8 11 15 16 17 20 21 22 21 18 14 12 13 18 20 25 30 29 27 29 32 32 32 32 32 33 34 36 37 38 38 37 37 38 38 39 41 42 42 42 44
19 20 21 21 21 21 20 20 20 20 20 20 20 21 22 22 21 21 21 22 23 23 24 25 25 25 24 20 16 11 8 9 11 14 16 18 18 16 13 14 15 17 16 10 6 9 12 16 19 21 21 21 19 16 14 12 13 15 19 22 27 30 30 30 31 33 33 32 32 32 32 32 33 35 37 38 38 37 37 37 38 39 41 42 43 44
17 18 19 19 19 18 18 18 18 19 19 19 19 19 18 18 19 20 22 23 23 22 21 22 22 23 22 20 16 12 9 9 11 12 14 16 17 16 13 13 15 16 14 6 8 12 14 17 21 22 22 19 16 13 12 11 12 16 21 25 28 30 31 31 32 34 33 33 33 32 31 31 31 32 34 35 36 37 37 36 36 37 38 40 42 44
16 16 16 16 16 16 16 17 18 18 18 17 15 13 14 16 19 21 22 22 21 20 19 20 20 21 20 18 15 10 8 8 9 10 12 14 16 16 14 12 14 15 12 4 9 14 17 19 21 23 23 18 13 11 11 10 10 14 21 27 29 29 30 30 31 33 32 32 33 32 31 30 30 30 31 32 34 36 37 37 36 36 37 38 40 42
13 13 13 13 13 14 15 16 17 17 16 14 11 10 13 16 19 20 20 20 19 18 17 17 17 17 18 18 14 8 5 6 8 10 11 13 15 15 13 12 13 13 10 2 10 16 17 18 20 22 24 18 11 8 10 9 8 11 19 27 30 29 28 30 32 33 31 32 32 33 32 31 30 30 30 30 32 33 35 36 37 38 38 39 40 41
10 9 9 9 10 11 12 14 15 15 13 11 10 10 13 16 17 17 17 17 16 15 15 15 14 15 16 17 13 8 4 6 9 11 11 12 13 13 11 10 12 12 8 1 11 16 16 16 18 22 25 20 11 6 7 8 6 8 15 26 29 29 30 31 32 32 30 31 32 33 33 32 31 31 31 30 30 31 33 34 36 37 39 40 41 41
12 11 10 10 10 10 10 11 11 10 10 9 10 11 13 14 15 14 14 13 12 12 13 14 14 14 15 16 14 9 7 7 8 9 10 11 12 11 9 8 9 8 6 2 7 13 15 16 18 22 25 21 12 5 5 7 5 5 12 24 29 30 31 33 34 31 28 29 31 32 33 33 33 33 32 32 31 31 31 32 34 35 36 37 38 40
18 17 16 14 13 11 10 9 8 8 7 7 8 9 10 11 10 10 9 10 10 11 13 14 14 14 14 14 14 14 12 9 7 7 9 10 11 10 8 7 7 6 5 4 4 5 10 15 18 21 23 20 13 7 7 9 6 4 10 21 28 30 30 33 35 33 28 26 28 31 33 34 34 34 34 33 33 32 32 32 32 33 33 34 35 36
21 20 19 17 15 13 11 9 8 7 6 6 6 6 6 6 6 7 7 8 9 11 12 13 13 13 13 13 14 15 14 8 6 6 7 9 10 9 8 8 7 6 4 3 3 3 1 9 15 19 19 17 11 6 6 9 8 5 11 19 23 24 25 29 34 35 29 26 27 30 32 33 34 34 34 34 34 34 33 33 33 33 33 33 33 34
22 22 21 19 17 14 12 10 8 7 6 6 5 5 5 5 5 6 7 8 9 10 11 13 13 13 13 12 13 12 10 6 5 5 6 8 9 9 7 7 6 5 3 2 1 1 1 4 11 16 17 16 11 6 5 8 8 7 11 15 18 19 21 24 28 31 30 29 28 29 30 31 32 33 33 34 34 34 34 34 34 33 33 33 33 33
23 23 22 21 18 16 13 11 9 8 8 7 7 6 6 6 6 6 7 7 8 9 11 12 12 13 13 13 12 10 7 4 4 4 5 7 9 9 8 7 7 5 3 1 1 3 4 7 11 14 15 15 12 8 5 7 7 7 11 11 12 15 19 21 24 27 30 31 30 29 29 30 30 31 31 32 33 34 34 34 34 34 34 33 33 33
24 24 24 22 20 17 14 12 10 9 9 8 8 8 8 8 8 7 7 7 8 8 9 10 11 11 12 12 12 10 7 4 2 3 4 7 8 9 9 8 7 6 5 3 2 3 5 9 13 14 15 15 12 9 7 8 7 7 9 8 8 10 15 19 22 26 31 32 31 30 29 29 30 30 30 31 32 33 34 35 35 35 34 34 33 33
25 25 25 24 22 19 16 13 11 10 10 9 9 9 10 10 10 9 8 8 8 8 8 9 9 10 10 10 10 9 6 4 3 2 3 5 7 9 10 9 8 6 6 5 4 4 6 8 12 15 15 15 13 10 8 7 8 7 7 7 6 7 11 15 21 26 32 33 32 30 29 29 30 30 30 31 31 32 33 34 35 35 35 34 33 33
25 25 26 25 23 21 17 15 13 12 11 11 11 11 12 12 12 11 10 8 7 7 7 7 7 8 8 8 8 7 5 4 3 3 3 4 6 8 10 9 7 6 7 7 6 5 7 9 12 14 15 15 13 11 10 6 7 8 7 7 6 6 8 12 19 26 33 35 33 30 30 30 30 30 30 30 31 31 32 33 35 36 36 35 34 33
25 25 25 25 24 22 19 17 15 13 13 13 14 14 14 14 13 12 10 8 7 6 6 5 5 6 7 7 7 5 4 3 3 3 3 4 5 7 9 8 7 6 6 6 6 5 6 8 10 13 14 15 14 12 12 9 6 8 7 7 6 5 6 10 16 24 32 34 32 30 31 31 31 31 30 30 31 32 32 33 34 35 35 35 35 35
25 25 25 25 25 23 21 19 17 15 15 15 15 15 15 14 13 11 9 8 6 5 5 5 5 5 6 6 6 4 3 3 3 3 3 4 5 6 7 7 7 6 5 5 5 5 5 5 7 10 12 14 14 13 13 12 8 6 7 7 7 5 5 8 13 20 26 29 28 27 29 32 32 31 31 31 31 32 33 33 34 34 35 36 36 36
26 26 26 26 25 23 22 19 18 16 16 16 16 15 15 14 12 10 8 7 5 5 4 4 5 5 6 7 6 4 3 3 3 3 4 4 4 4 5 7 6 5 5 4 5 5 5 5 6 8 11 13 13 14 15 16 11 6 7 8 8 6 6 8 11 15 19 23 25 26 29 32 33 32 31 31 31 32 33 34 34 34 34 35 36 36
26 26 27 26 25 23 22 20 18 17 17 17 17 16 16 15 13 11 9 6 5 3 3 2 2 3 4 5 5 4 3 4 4 4 4 4 3 4 4 5 6 6 5 5 5 6 5 5 6 7 11 13 14 15 16 17 14 11 10 11 9 8 7 9 12 14 16 19 22 26 29 31 31 31 31 31 31 32 33 33 33 33 33 34 35 37
27 27 27 26 25 24 22 20 19 18 18 18 18 17 17 15 14 13 11 9 6 4 2 1 1 1 2 3 3 3 3 4 4 4 4 3 3 3 4 5 5 5 5 5 6 6 6 6 5 6 9 13 15 15 15 16 16 14 14 13 11 8 7 9 13 15 16 18 21 25 28 30 30 30 31 31 31 31 32 31 31 31 31 31 33 35
28 27 27 26 25 24 23 22 21 20 20 19 19 18 16 15 14 13 12 11 9 7 5 3 2 2 1 2 3 3 3 3 3 3 3 3 3 3 4 5 5 5 5 5 6 6 5 6 6 6 7 11 13 15 17 18 18 17 17 17 14 11 9 10 13 16 17 18 20 24 27 28 29 29 30 31 31 31 31 30 30 29 29 30 30 32
28 27 27 26 25 24 24 24 23 23 22 21 20 19 17 16 15 14 13 12 10 9 7 6 5 4 3 3 3 3 3 3 3 2 2 2 2 2 3 4 5 5 5 5 6 5 5 6 6 5 7 10 12 15 19 21 20 19 19 19 17 14 11 12 14 16 18 18 19 21 23 25 26 27 29 30 31 31 30 30 29 29 28 29 29 30
29 28 28 27 26 26 25 25 25 24 23 22 21 19 18 16 15 15 14 12 11 10 10 9 8 8 7 5 4 4 4 3 2 2 1 1 0 1 2 3 4 4 5 5 5 6 6 6 5 5 6 9 12 15 19 22 22 21 20 20 18 15 12 11 13 15 17 18 18 19 20 21 22 24 27 28 29 29 28 27 27 27 27 28 29 30
30 30 29 28 28 27 27 26 26 25 25 23 22 20 18 17 16 15 14 13 12 11 11 10 11 11 10 8 6 5 4 3 2 2 1 1 1 1 2 2 3 4 5 6 6 6 6 6 5 3 5 8 12 16 20 23 23 22 21 21 19 16 12 11 11 13 16 18 18 18 18 18 19 21 23 25 27 27 26 25 24 23 24 26 29 31
31 31 31 30 29 28 27 27 27 27 26 25 23 21 19 18 17 16 14 13 13 12 11 11 11 11 11 9 8 7 6 5 4 3 2 2 3 3 3 3 3 4 5 6 6 6 6 6 4 2 5 8 12 16 21 24 25 24 22 21 20 18 15 13 12 13 15 17 18 18 17 17 17 18 20 23 24 25 24 24 22 21 21 22 26 31
32 31 31 30 30 29 28 28 28 28 28 27 24 22 20 19 18 17 16 15 14 14 13 12 12 12 11 10 10 9 9 8 7 6 5 4 5 5 5 5 5 5 5 5 6 6 6 5 4 2 5 9 14 18 22 25 26 26 24 23 21 20 17 14 13 13 14 16 16 17 16 16 17 17 19 21 23 23 23 23 22 20 19 18 21 25
31 31 31 31 30 30 29 29 29 29 28 27 26 24 21 19 19 18 18 17 16 15 15 14 14 13 12 11 10 10 9 9 8 7 6 6 6 6 6 6 5 5 5 5 5 6 5 5 4 3 6 10 15 19 22 25 27 27 26 24 22 20 18 15 14 13 14 15 16 16 16 15 15 16 17 20 22 23 23 22 21 20 18 16 16 19
31 31 31 31 31 30 29 29 29 28 28 28 27 25 23 21 19 18 17 17 17 17 16 15 14 13 13 12 11 10 10 9 8 8 7 6 6 5 5 4 4 4 4 5 5 5 5 4 4 4 6 10 14 18 22 25 27 28 27 25 23 21 19 17 15 15 16 16 17 17 16 15 14 14 15 18 21 23 24 23 22 20 18 16 14 15
31 31 31 31 31 30 30 29 28 28 28 27 27 26 24 22 21 19 18 18 18 18 17 16 15 14 13 12 12 11 11 10 10 9 8 7 6 5 4 4 3 3 3 4 5 5 5 4 5 5 7 10 14 17 21 24 26 28 29 27 25 23 22 20 18 17 17 17 18 18 17 16 14 13 13 15 19 23 24 24 23 21 19 18 16 15
Wind_Direction
313 313 315 317 317 316 315 317 318 319 318 320 322 325 327 326 324 322 320 318 314 307 298 290 281 273 265 259 257 259 263 265 261 253 246 239 238 240 245 249 252 254 256 257 258 257 257 258 258 258 256 251 244 235 225 214 208 207 209 210 212 213 215 218 219 220 220 220 221 220 220 220 220 220 221 223 225 227 229 230 228 224 220 218 216 213
315 314 314 316 317 315 314 317 319 320 319 320 322 324 326 326 325 323 322 320 316 311 303 294 285 276 267 260 257 258 261 266 267 265 259 251 244 242 244 248 251 253 254 254 255 256 256 258 259 259 257 253 246 239 231 222 212 207 207 209 210 212 214 217 219 220 221 221 221 221 221 221 220 221 222 223 225 227 229 231 230 226 221 219 216 213
316 315 315 316 316 315 315 318 320 321 320 320 321 323 325 325 326 326 325 323 318 313 306 298 288 279 270 263 258 258 260 264 269 271 270 265 257 250 247 248 251 253 254 254 254 254 255 256 258 259 258 254 248 241 234 228 219 210 206 207 209 211 214 216 218 220 222 222 222 221 221 220 220 221 222 224 226 228 229 230 230 228 223 219 216 213
315 315 314 315 316 315 316 319 321 321 319 320 321 323 324 325 326 327 327 325 321 316 310 302 292 282 273 265 260 258 260 262 266 270 273 272 267 260 254 252 253 255 255 254 253 252 251 253 255 258 258 255 249 242 236 233 227 216 207 205 208 211 214 216 218 220 221 222 221 220 219 219 219 220 222 223 225 227 229 229 229 228 224 219 216 213
313 313 313 315 315 316 318 320 320 320 319 320 321 323 324 325 327 327 326 324 323 320 316 308 298 286 276 268 262 259 260 261 263 267 270 272 270 266 260 257 256 256 255 253 251 249 248 248 251 254 257 255 250 243 237 235 232 221 209 204 206 209 213 216 218 219 220 220 218 216 216 216 217 219 221 222 224 226 228 229 228 226 223 218 214 212
311 312 313 314 315 316 318 319 319 319 320 321 322 323 323 325 327 328 327 325 324 322 318 311 302 291 281 272 265 261 260 261 261 264 267 269 269 266 262 259 258 256 254 251 248 246 244 244 246 250 254 254 249 242 236 235 233 224 210 204 204 207 212 215 217 218 218 216 214 212 213 214 216 218 219 221 223 225 227 228 227 225 222 217 213 212
310 311 313 314 316 317 317 317 317 319 321 322 323 323 324 326 327 327 325 323 321 320 316 309 300 292 284 277 270 265 262 261 261 262 265 266 266 264 261 260 259 257 253 249 245 242 240 240 242 246 251 252 247 241 235 234 232 225 212 204 203 205 209 212 215 215 214 212 210 210 211 213 215 217 218 220 221 223 225 226 226 225 222 217 213 212
309 310 312 314 316 316 315 314 315 318 321 322 323 323 325 326 326 324 321 319 318 318 317 311 302 293 286 280 275 269 265 263 262 262 263 264 264 262 260 260 260 258 255 249 243 239 237 237 239 243 248 250 245 239 234 233 231 224 213 205 202 203 206 209 211 212 211 210 209 208 209 212 214 216 217 219 221 222 224 225 225 224 222 219 215 212
308 309 311 313 314 314 313 313 315 318 321 322 322 323 324 325 324 322 319 317 318 320 321 318 310 300 289 283 278 273 268 265 263 263 264 264 263 262 260 259 260 259 256 250 244 238 235 234 236 240 245 247 244 238 234 232 229 222 214 208 203 202 203 206 208 210 210 209 208 208 208 210 213 215 216 218 220 222 224 225 225 224 222 220 216 213
308 308 310 311 311 311 311 312 314 317 320 320 321 322 323 324 324 323 321 320 320 321 322 321 316 309 296 285 279 275 270 264 262 262 263 263 263 262 260 259 259 259 255 250 244 239 235 233 235 240 244 246 242 236 231 230 226 220 215 210 204 202 202 204 206 208 209 209 208 207 207 209 211 213 215 217 220 222 224 225 225 224 222 220 217 213
308 309 309 309 309 309 309 310 312 316 319 321 322 323 324 324 324 324 323 323 322 322 322 320 317 313 306 295 284 275 270 264 260 259 260 261 261 261 260 259 259 257 253 247 243 239 235 233 236 240 244 245 240 234 228 227 226 222 220 214 206 203 202 203 205 208 209 209 208 207 207 208 210 212 214 216 219 222 224 225 225 223 221 219 216 212
307 308 309 309 308 309 309 310 313 317 320 323 324 325 324 324 324 324 323 322 322 323 324 320 315 310 307 304 294 282 272 264 259 258 258 259 259 259 258 258 257 254 248 244 242 239 234 232 236 242 245 244 238 231 226 226 227 230 233 227 209 203 201 203 205 208 209 209 207 206 206 207 209 211 213 216 218 220 223 224 224 222 219 216 214 211
306 307 307 307 307 307 309 312 315 318 320 322 323 322 321 322 323 323 321 320 321 324 326 322 315 306 300 300 299 292 280 269 261 258 258 259 259 259 259 258 255 250 245 244 244 239 231 230 236 242 244 243 235 227 223 225 229 237 245 235 209 199 199 202 204 207 208 207 206 206 206 207 209 211 213 215 217 219 220 222 222 220 216 213 211 209
307 307 307 306 306 307 309 312 314 316 317 318 318 318 318 320 321 321 320 319 321 324 326 323 318 310 299 298 299 297 289 279 269 263 260 258 259 260 260 260 256 251 247 250 253 247 230 228 233 239 243 240 232 225 222 226 233 245 252 238 209 197 197 200 204 206 207 206 205 205 206 208 210 212 214 215 216 217 218 218 218 216 212 210 208 207
306 307 306 305 304 305 307 309 311 312 312 313 315 317 318 319 319 320 320 320 322 325 326 322 316 310 301 298 300 300 296 290 282 274 265 258 256 257 260 260 257 254 252 257 262 259 235 228 229 234 239 237 229 223 223 228 238 252 256 238 209 198 197 200 203 205 206 206 205 205 206 208 210 212 213 215 216 216 215 214 213 211 208 206 204 204
305 305 304 303 302 303 304 305 307 308 309 311 314 316 317 316 317 319 320 320 323 325 325 323 319 312 302 291 289 297 300 296 291 284 274 262 255 254 256 257 256 255 255 259 263 261 241 225 225 230 236 234 227 223 224 230 242 256 258 237 209 197 197 200 203 205 205 205 205 206 207 209 210 211 212 214 214 214 213 212 210 207 204 202 202 202
303 302 301 300 299 300 301 302 303 305 307 310 313 314 314 315 317 319 320 321 322 322 321 321 321 318 310 294 281 289 303 302 297 290 281 268 257 252 253 254 255 255 256 260 261 257 232 216 220 229 235 234 228 225 226 232 244 257 256 233 209 197 196 199 201 203 204 205 205 207 208 209 210 210 211 212 212 212 211 210 208 206 204 203 202 202
301 300 299 298 297 298 300 301 303 304 307 310 312 314 315 316 318 318 318 318 318 317 317 317 316 315 311 303 294 293 313 311 305 297 286 271 258 250 250 252 253 255 257 260 260 252 212 203 217 227 233 233 230 227 228 234 244 255 252 226 208 199 195 196 197 200 202 203 205 207 208 209 209 209 209 209 209 209 209 209 208 207 206 206 206 207
300 298 298 297 297 299 301 302 303 304 306 309 312 314 315 316 316 315 313 313 313 313 312 312 310 308 307 302 299 305 323 320 313 306 296 278 260 249 249 249 251 254 256 258 255 234 191 191 208 221 229 229 228 227 228 234 244 249 234 215 208 202 197 193 193 196 199 201 203 205 207 207 208 207 207 207 207 207 207 207 207 208 208 209 210 210
299 300 300 301 302 302 302 302 302 303 306 310 314 315 314 314 313 311 309 309 309 310 310 308 306 305 304 302 303 314 332 329 321 314 306 286 266 252 250 250 251 252 254 255 246 204 184 184 197 212 221 226 227 227 228 234 242 243 224 214 209 205 199 193 190 192 196 199 201 202 204 205 205 204 204 204 205 205 205 206 206 207 207 208 209 210
302 304 307 309 307 303 300 300 302 306 310 315 317 315 312 311 309 306 305 305 307 308 307 305 302 302 302 302 305 317 339 341 334 326 315 295 271 255 252 254 254 253 253 251 236 195 184 176 179 195 209 219 224 226 227 233 239 239 227 222 214 205 199 193 189 189 193 196 198 199 201 201 201 201 201 201 203 204 205 206 206 205 205 205 206 205
305 306 308 310 307 302 299 301 305 310 316 319 318 315 312 308 304 302 302 304 306 306 304 301 299 299 299 300 303 312 333 345 340 331 320 304 281 260 255 258 259 257 255 251 231 189 175 164 165 181 201 214 220 223 226 231 235 234 229 227 216 205 198 192 188 188 191 192 193 195 196 197 198 197 198 199 200 203 205 206 207 206 205 205 204 202
305 306 307 308 305 302 302 304 309 315 319 319 316 312 308 302 298 298 300 304 305 304 302 299 297 297 298 300 301 304 319 338 335 323 311 300 285 268 261 264 263 259 256 252 229 180 159 152 159 177 196 209 216 220 224 231 238 237 232 226 213 203 197 191 188 187 188 188 188 190 192 193 194 195 195 196 197 200 203 205 207 208 207 207 206 203
305 304 303 301 300 300 303 306 311 314 315 312 308 303 297 293 294 297 302 304 302 299 297 296 295 296 297 299 298 294 293 306 302 295 291 288 282 274 271 273 270 265 258 253 224 169 149 149 158 174 191 202 210 217 224 236 248 246 234 222 208 200 197 192 188 186 185 183 183 184 186 188 190 192 193 194 195 197 199 202 205 206 207 208 207 204
300 298 296 295 295 297 299 301 303 302 300 296 291 288 287 291 296 299 298 296 293 292 293 294 295 296 297 299 294 283 271 272 272 276 284 288 283 277 276 280 279 273 266 252 199 160 153 153 161 173 184 196 208 219 228 239 247 244 230 215 204 199 197 192 187 183 182 179 178 178 180 182 185 188 190 191 192 193 195 197 200 202 203 204 203 200
294 291 290 290 291 291 290 288 286 283 279 279 279 283 290 296 296 292 288 287 288 291 294 295 295 296 298 298 293 281 265 264 270 279 289 293 288 282 282 285 283 279 274 245 176 165 164 161 164 171 180 193 207 218 221 224 230 228 220 209 202 198 197 192 186 182 179 177 176 175 175 176 179 182 186 188 189 190 190 191 193 195 197 198 197 195
296 293 292 291 290 288 286 283 278 275 274 274 277 285 294 291 287 284 285 286 288 291 294 296 298 300 302 301 296 282 263 263 273 282 290 294 292 290 291 292 288 285 283 227 166 168 171 168 167 171 180 190 200 202 197 195 202 209 209 205 200 197 195 190 185 181 177 175 174 173 172 171 172 175 179 182 185 186 187 186 187 189 190 191 191 191
308 304 301 298 295 293 288 283 279 277 276 275 277 280 281 279 280 283 286 286 288 292 295 298 302 305 306 306 299 282 263 280 286 288 292 294 295 295 296 297 293 291 291 216 152 158 169 170 171 174 181 188 190 182 179 180 179 187 197 199 199 197 194 188 183 179 176 174 173 172 171 169 169 170 172 175 179 183 184 184 184 185 185 186 188 189
332 326 320 315 310 303 295 287 283 281 278 273 269 267 268 270 275 280 283 287 292 297 299 299 300 302 305 304 296 278 272 290 287 286 293 295 294 293 293 299 299 298 300 163 140 146 158 166 173 179 185 191 190 179 185 197 184 168 181 192 196 197 195 189 183 178 174 171 171 171 170 169 169 168 168 170 173 177 180 182 183 184 184 185 186 188
357 354 350 345 336 326 315 306 299 292 283 272 264 260 261 265 271 277 284 292 299 302 302 300 299 302 305 307 301 287 268 258 267 281 291 297 297 293 291 303 312 317 327 53 123 138 149 160 174 184 189 196 201 217 234 237 227 166 166 182 189 194 194 191 186 181 174 169 168 168 169 169 170 170 169 169 171 173 176 180 183 184 185 186 187 188
7 4 1 359 354 347 339 330 322 312 298 285 274 267 266 270 276 285 296 304 306 305 302 301 301 303 307 310 306 295 276 242 247 283 291 299 300 297 300 315 333 347 358 31 63 111 142 151 168 185 193 197 205 231 255 253 248 186 153 170 181 188 189 189 188 185 178 169 165 165 166 168 170 172 172 172 172 173 175 178 181 184 185 186 187 189
8 5 3 1 359 357 353 348 342 335 326 315 303 293 288 291 296 304 313 315 313 309 305 304 304 305 306 304 299 290 280 261 263 286 290 299 300 301 307 318 336 356 8 26 24 17 96 142 159 176 189 194 196 209 236 241 235 183 138 153 163 170 175 181 185 186 180 171 164 162 163 166 169 172 174 175 176 177 178 179 181 183 184 185 186 188
7 5 4 2 1 1 1 1 359 358 355 350 345 338 331 326 324 323 322 321 318 314 310 309 307 307 307 305 300 294 290 294 294 292 293 301 307 311 317 323 334 350 12 28 50 40 33 131 150 163 176 186 185 178 195 219 212 171 132 132 135 141 149 160 171 176 175 171 165 160 161 164 167 171 174 177 179 180 181 181 183 183 184 185 185 186
6 5 4 3 3 4 6 8 11 12 13 12 9 4 358 351 345 338 331 325 320 316 312 310 308 307 309 309 310 314 323 331 318 301 300 308 314 320 329 336 341 348 2 20 99 115 117 131 145 155 167 178 182 178 176 204 199 164 136 125 125 129 131 136 145 157 166 168 164 159 159 162 166 170 174 177 179 181 182 183 184 184 185 185 185 185
6 5 5 5 5 5 7 10 14 17 20 20 18 14 8 3 357 350 341 333 325 318 313 309 307 306 307 309 312 321 340 9 4 315 309 315 320 326 335 344 347 348 354 353 31 72 91 125 142 152 160 170 175 178 181 208 207 177 148 135 130 130 129 126 131 143 157 162 160 158 159 163 167 171 174 177 179 180 182 183 184 184 185 185 186 186
5 5 5 6 6 6 7 9 13 17 21 22 22 17 12 8 3 357 349 340 330 320 314 310 308 308 310 312 316 324 345 24 46 5 329 323 325 330 336 347 352 350 347 346 4 36 60 101 130 145 153 161 163 163 167 201 216 202 168 155 143 132 129 124 126 137 150 157 159 158 161 165 169 172 174 176 178 179 181 183 184 184 185 186 187 188
3 3 4 5 6 6 7 9 13 15 19 21 21 18 13 9 5 359 353 344 334 323 315 311 309 310 311 314 320 329 348 23 43 33 359 336 330 331 335 346 353 351 343 342 351 22 58 89 120 137 147 156 160 151 133 159 214 219 187 176 159 136 127 121 124 135 149 155 159 161 165 169 170 171 172 174 176 178 180 181 183 184 185 186 188 189
2 2 2 3 4 5 6 8 10 13 15 15 15 12 9 6 3 0 355 349 341 332 324 320 317 315 314 313 315 326 350 12 26 29 17 352 338 333 334 344 352 353 343 335 342 8 50 87 114 131 144 158 164 152 127 132 186 218 209 198 184 160 133 118 121 132 145 153 157 160 163 166 166 167 169 172 174 176 178 179 181 184 185 187 188 190
2 1 1 2 3 5 6 7 9 11 13 14 12 10 7 5 4 3 1 357 352 346 340 336 331 323 315 309 307 314 339 1 12 16 13 1 346 337 337 343 351 356 349 335 339 359 30 69 103 124 137 149 154 148 135 134 154 203 220 210 200 187 157 124 117 124 135 142 142 144 152 158 160 162 165 168 171 173 174 176 178 182 184 186 187 188
2 2 3 4 5 6 7 9 11 13 15 15 15 13 11 10 10 12 13 9 4 359 353 346 335 322 310 301 298 302 321 343 354 359 1 357 348 340 340 343 346 351 352 346 346 356 17 42 79 111 131 138 143 144 138 138 143 174 215 204 193 185 173 138 126 127 132 131 130 133 141 150 154 157 160 164 167 168 170 172 175 178 182 184 185 186
4 4 5 7 9 11 12 14 16 17 19 19 18 17 16 16 18 21 26 26 24 18 8 355 337 319 308 297 293 299 319 336 345 350 351 348 342 337 339 342 343 343 346 350 351 354 7 27 59 98 125 135 141 143 144 145 151 169 197 197 187 173 163 145 138 138 139 134 130 131 136 142 147 151 155 159 162 164 166 169 172 175 178 181 183 184
6 6 7 9 11 13 15 17 19 21 22 23 22 20 20 20 20 21 23 26 30 35 41 46 38 357 334 328 319 315 326 336 342 345 344 339 336 334 338 342 342 340 339 346 352 356 1 17 43 80 114 129 131 133 139 151 161 174 191 197 190 171 150 143 143 144 144 139 132 131 134 138 144 149 152 154 157 159 162 165 168 172 175 177 180 182
9 9 10 12 14 16 18 20 21 23 24 24 23 23 24 24 23 22 22 23 25 28 31 35 42 43 28 7 352 345 345 344 341 339 337 334 333 337 340 343 342 340 337 340 348 358 7 17 31 58 101 122 127 132 141 154 164 174 188 196 195 182 159 148 146 148 146 142 136 133 133 137 142 147 149 151 153 155 159 163 166 170 173 176 179 182
11 12 13 14 17 19 21 22 22 23 23 22 22 24 26 27 27 25 25 25 27 28 31 39 46 53 52 41 23 6 357 351 345 336 330 327 333 340 343 343 343 342 343 346 353 4 20 26 32 55 93 113 119 127 140 153 162 172 184 192 196 191 174 157 150 148 147 143 139 135 135 137 141 144 145 146 148 152 156 161 166 171 175 179 181 184
14 14 14 16 18 20 21 21 22 22 22 22 23 24 27 29 29 28 27 28 30 31 33 37 41 45 50 53 51 39 22 8 356 343 330 327 347 9 358 357 357 1 6 9 13 16 20 23 32 61 101 116 120 127 137 148 159 170 182 191 197 195 181 163 151 148 146 142 138 136 136 137 141 143 144 144 145 148 152 157 163 170 176 182 186 188
16 15 15 17 19 21 21 22 23 22 22 22 23 25 28 30 31 31 30 31 32 33 35 37 38 41 43 45 50 52 49 40 25 12 11 27 75 89 74 46 36 33 34 33 30 26 23 21 23 52 109 124 129 133 139 147 155 167 181 191 196 195 187 171 157 150 147 143 139 137 137 139 141 143 144 143 144 146 149 152 157 164 174 183 189 191
18 16 16 17 19 21 23 24 23 22 21 21 23 26 28 30 31 32 33 34 34 34 35 38 41 43 44 44 45 47 51 54 52 46 51 75 95 104 103 91 72 57 50 44 39 34 29 23 24 66 134 137 136 137 142 148 155 164 176 188 194 193 187 177 164 154 148 144 141 140 141 144 145 145 146 145 144 145 147 149 152 158 167 179 188 191
20 18 17 18 20 22 23 24 23 22 20 20 22 26 29 31 32 32 34 35 34 34 33 36 40 44 47 46 46 45 46 49 51 55 65 87 102 107 106 98 86 75 66 57 51 43 38 32 36 81 134 141 139 139 142 148 155 163 174 185 192 194 188 179 166 154 148 145 144 144 145 145 146 147 149 149 148 147 147 148 150 152 159 171 184 191
22 20 19 19 20 22 23 23 23 21 20 19 21 25 29 32 34 34 35 35 34 32 31 32 36 41 44 46 48 49 49 50 51 56 68 84 96 102 105 100 94 86 77 69 61 55 50 46 51 85 124 134 139 141 143 148 154 163 172 182 190 194 191 181 168 157 151 149 149 149 148 147 145 145 148 154 154 153 151 149 149 151 156 164 177 188
23 22 20 20 20 21 22 23 23 21 20 19 20 23 27 31 34 36 36 36 35 34 32 31 32 35 39 42 46 49 51 53 55 58 64 73 80 86 93 96 94 88 84 77 73 68 65 63 74 100 122 131 137 141 143 146 152 160 169 179 188 194 193 185 174 164 158 155 154 153 151 148 145 145 148 156 160 159 155 153 152 153 158 165 174 184
23 23 22 21 21 22 23 24 23 22 20 20 21 22 25 28 32 35 37 37 36 35 33 32 31 32 35 39 43 47 50 53 54 54 54 56 56 58 64 71 73 74 78 77 74 72 72 78 93 109 122 131 136 140 142 144 148 154 163 174 185 193 194 188 179 170 163 159 156 155 153 152 150 149 150 156 163 164 161 159 156 156 159 167 176 183